Tiempo cada hora Golden Valley

Hoy, 1 Diciembre, Martes

Tiempo Temperatura Precipitaciones Viento Presión Humedad
00:00 -4°C° 0 mm 1 mps 740 mmHg 51%
01:00 -4°C° 0 mm 1 mps 740 mmHg 51%
02:00 -4°C° 0 mm 1 mps 739 mmHg 52%
03:00 -4°C° 0 mm 1 mps 739 mmHg 52%
04:00 -6°C° 0 mm 2 mps 739 mmHg 52%
05:00 -6°C° 0 mm 2 mps 739 mmHg 52%
06:00 -6°C° 0 mm 2 mps 739 mmHg 52%
07:00 -6°C° 0 mm 2 mps 739 mmHg 50%
08:00 -5°C° 0 mm 2 mps 739 mmHg 48%
09:00 -5°C° 0 mm 2 mps 739 mmHg 46%
10:00 -4°C° 0 mm 2 mps 740 mmHg 41%
11:00 -2°C° 0 mm 2 mps 740 mmHg 36%
12:00 -1°C° 0 mm 2 mps 740 mmHg 31%
13:00 +1°C° 0 mm 2 mps 740 mmHg 30%
14:00 +1°C° 0 mm 2 mps 739 mmHg 30%
15:00 +3°C° 0 mm 1 mps 739 mmHg 29%
16:00 +2°C° 0 mm 1 mps 740 mmHg 32%
17:00 -1°C° 0 mm 2 mps 740 mmHg 34%
18:00 -2°C° 0 mm 2 mps 740 mmHg 37%
19:00 -2°C° 0 mm 2 mps 741 mmHg 38%
20:00 0°C° 0 mm 1 mps 741 mmHg 39%
21:00 -1°C° 0 mm 1 mps 741 mmHg 40%
22:00 -1°C° 0 mm 1 mps 742 mmHg 40%
23:00 -1°C° 0 mm 1 mps 742 mmHg 40%

Mañana, 2 Diciembre, Miércoles

Tiempo Temperatura Precipitaciones Viento Presión Humedad
00:00 -1°C° 0 mm 1 mps 743 mmHg 41%
01:00 -1°C° 0 mm 1 mps 743 mmHg 42%
02:00 -1°C° 0 mm 1 mps 743 mmHg 43%
03:00 -1°C° 0 mm 1 mps 744 mmHg 44%
04:00 -1°C° 0 mm 1 mps 744 mmHg 46%
05:00 -1°C° 0 mm 1 mps 744 mmHg 48%
06:00 -1°C° 0 mm 1 mps 744 mmHg 50%
07:00 -1°C° 0 mm 1 mps 745 mmHg 50%
08:00 -1°C° 0 mm 1 mps 745 mmHg 50%
09:00 -2°C° 0 mm 2 mps 745 mmHg 49%
10:00 -1°C° 0 mm 2 mps 745 mmHg 47%
11:00 +1°C° 0 mm 2 mps 746 mmHg 45%
12:00 +2°C° 0 mm 2 mps 746 mmHg 42%
13:00 +2°C° 0 mm 2 mps 745 mmHg 44%
14:00 +2°C° 0 mm 2 mps 745 mmHg 47%
15:00 +2°C° 0 mm 2 mps 745 mmHg 49%
16:00 +1°C° 0 mm 2 mps 745 mmHg 57%
17:00 -1°C° 0 mm 2 mps 745 mmHg 65%
18:00 -2°C° 0 mm 2 mps 745 mmHg 73%
19:00 -2°C° 0 mm 2 mps 745 mmHg 75%
20:00 -2°C° 0 mm 2 mps 745 mmHg 78%
21:00 -3°C° 0 mm 2 mps 745 mmHg 81%
22:00 -2°C° 0 mm 2 mps 744 mmHg 82%
23:00 -2°C° 0 mm 2 mps 744 mmHg 82%

Pasado mañana, 3 Diciembre, Jueves

Tiempo Temperatura Precipitaciones Viento Presión Humedad
00:00 -2°C° 0 mm 2 mps 744 mmHg 82%
01:00 -2°C° 0 mm 3 mps 743 mmHg 83%
02:00 -2°C° 0 mm 3 mps 743 mmHg 84%
03:00 -4°C° 0 mm 3 mps 743 mmHg 85%
04:00 -4°C° 0 mm 3 mps 742 mmHg 83%
05:00 -4°C° 0 mm 3 mps 742 mmHg 82%
06:00 -4°C° 0 mm 3 mps 742 mmHg 80%
07:00 -4°C° 0 mm 3 mps 742 mmHg 77%
08:00 -4°C° 0 mm 3 mps 741 mmHg 75%
09:00 -4°C° 0 mm 3 mps 741 mmHg 72%
10:00 -2°C° 0 mm 3 mps 741 mmHg 67%
11:00 -1°C° 0 mm 3 mps 741 mmHg 61%
12:00 0°C° 0 mm 3 mps 740 mmHg 55%
13:00 +1°C° 0 mm 3 mps 740 mmHg 54%
14:00 +1°C° 0 mm 3 mps 739 mmHg 53%
15:00 +1°C° 0 mm 3 mps 739 mmHg 51%
16:00 +1°C° 0 mm 3 mps 739 mmHg 54%
17:00 0°C° 0 mm 3 mps 738 mmHg 57%
18:00 -1°C° 0 mm 3 mps 738 mmHg 60%
19:00 -1°C° 0 mm 2 mps 738 mmHg 60%
20:00 -1°C° 0 mm 2 mps 738 mmHg 61%
21:00 -2°C° 0 mm 2 mps 738 mmHg 61%
22:00 -2°C° 0 mm 2 mps 738 mmHg 61%
23:00 -2°C° 0 mm 2 mps 738 mmHg 61%

4 Diciembre, Viernes

Tiempo Temperatura Precipitaciones Viento Presión Humedad
00:00 -2°C° 0 mm 2 mps 737 mmHg 61%
01:00 -2°C° 0 mm 2 mps 737 mmHg 62%
02:00 -2°C° 0 mm 2 mps 737 mmHg 63%
03:00 -2°C° 0 mm 2 mps 737 mmHg 64%
04:00 -2°C° 0 mm 2 mps 737 mmHg 65%
05:00 -2°C° 0 mm 2 mps 737 mmHg 66%
06:00 -2°C° 0 mm 2 mps 738 mmHg 67%
07:00 -2°C° 0 mm 2 mps 738 mmHg 66%
08:00 +1°C° 0 mm 1 mps 738 mmHg 65%
09:00 +1°C° 0 mm 1 mps 738 mmHg 65%
10:00 +2°C° 0 mm 1 mps 738 mmHg 62%
11:00 +3°C° 0 mm 1 mps 738 mmHg 59%
12:00 +4°C° 0 mm 1 mps 738 mmHg 56%
13:00 +4°C° 0 mm 1 mps 738 mmHg 57%
14:00 +4°C° 0 mm 1 mps 738 mmHg 58%
15:00 +3°C° 0 mm 0 mps 738 mmHg 58%
16:00 +4°C° 0 mm 1 mps 739 mmHg 62%
17:00 +3°C° 0 mm 1 mps 739 mmHg 66%
18:00 +2°C° 0 mm 1 mps 739 mmHg 70%
19:00 +2°C° 0 mm 1 mps 739 mmHg 72%
20:00 +1°C° 0 mm 1 mps 739 mmHg 73%
21:00 0°C° 0 mm 0 mps 739 mmHg 75%
22:00 +1°C° 0 mm 1 mps 739 mmHg 76%
23:00 +1°C° 0 mm 1 mps 739 mmHg 76%

5 Diciembre, Sábado

Tiempo Temperatura Precipitaciones Viento Presión Humedad
00:00 +1°C° 0 mm 1 mps 739 mmHg 77%
01:00 +1°C° 0 mm 1 mps 739 mmHg 78%
02:00 -1°C° 0 mm 2 mps 739 mmHg 78%
03:00 -1°C° 0 mm 2 mps 739 mmHg 79%
04:00 -1°C° 0 mm 2 mps 739 mmHg 77%
05:00 -1°C° 0 mm 2 mps 739 mmHg 76%
06:00 0°C° 0 mm 1 mps 738 mmHg 75%
07:00 -1°C° 0 mm 2 mps 739 mmHg 73%
08:00 -1°C° 0 mm 2 mps 739 mmHg 71%
09:00 -1°C° 0 mm 2 mps 739 mmHg 69%
10:00 +1°C° 0 mm 2 mps 739 mmHg 67%
11:00 +1°C° 0 mm 3 mps 739 mmHg 65%
12:00 +2°C° 0 mm 3 mps 738 mmHg 64%
13:00 +2°C° 0 mm 3 mps 738 mmHg 65%
14:00 +1°C° 0 mm 3 mps 738 mmHg 66%
15:00 +1°C° 0 mm 3 mps 737 mmHg 67%
16:00 +1°C° 0 mm 3 mps 738 mmHg 70%
17:00 0°C° 0 mm 3 mps 738 mmHg 74%
18:00 -1°C° 0 mm 3 mps 738 mmHg 77%
19:00 -2°C° 0 mm 3 mps 738 mmHg 77%
20:00 -2°C° 0 mm 3 mps 738 mmHg 77%
21:00 -2°C° 0 mm 2 mps 738 mmHg 77%
22:00 -2°C° 0 mm 2 mps 738 mmHg 76%
23:00 -2°C° 0 mm 2 mps 738 mmHg 76%

6 Diciembre, Domingo

Tiempo Temperatura Precipitaciones Viento Presión Humedad
00:00 -2°C° 0 mm 2 mps 738 mmHg 76%
01:00 -2°C° 0 mm 2 mps 738 mmHg 76%
02:00 -2°C° 0 mm 2 mps 738 mmHg 76%
03:00 -2°C° 0 mm 2 mps 737 mmHg 77%
04:00 -3°C° 0 mm 2 mps 737 mmHg 78%
05:00 -3°C° 0 mm 2 mps 737 mmHg 78%
06:00 -3°C° 0 mm 2 mps 737 mmHg 79%
07:00 -2°C° 0 mm 2 mps 737 mmHg 78%
08:00 -2°C° 0 mm 2 mps 738 mmHg 77%
09:00 -2°C° 0 mm 2 mps 738 mmHg 76%
10:00 +1°C° 0 mm 1 mps 738 mmHg 72%
11:00 +2°C° 0 mm 1 mps 738 mmHg 68%
12:00 +3°C° 0 mm 1 mps 738 mmHg 64%
13:00 +3°C° 0 mm 1 mps 738 mmHg 64%
14:00 +2°C° 0 mm 2 mps 737 mmHg 64%
15:00 +3°C° 0 mm 2 mps 737 mmHg 64%
16:00 +2°C° 0 mm 2 mps 738 mmHg 67%
17:00 +2°C° 0 mm 1 mps 738 mmHg 71%
18:00 +1°C° 0 mm 1 mps 738 mmHg 74%
19:00 +1°C° 0 mm 1 mps 738 mmHg 74%
20:00 +1°C° 0 mm 1 mps 738 mmHg 75%
21:00 +1°C° 0 mm 1 mps 739 mmHg 75%
22:00 0°C° 0 mm 1 mps 739 mmHg 75%
23:00 0°C° 0 mm 1 mps 739 mmHg 76%
Mostrar más

Necesitamos Su Consentimiento

Meteoprog y nuestros Proveedores de Servicios pueden almacenar y acceder a sus datos personales como cookies, identificadores de dispositivo u otras tecnologías similares de su dispositivo y procesar dichos datos para personalizar contenido y anuncios, además de ofrecer funciones de redes sociales y analizar el tráfico.

  • Almacenar y/o acceder a información en su dispositivo

    Se puede almacenar o acceder a cookies, identificadores de dispositivo u otra información de su dispositivo para los fines anteriormente indicados.

  • Anuncios y contenido personalizados, medición de anuncios y contenido, percepciones del público, y desarrollo de productos

    Los anuncios y el contenido pueden personalizarse en base a su perfil. Se pueden añadir más datos para personalizar mejor los anuncios y contenidos. Se puede medir el rendimiento de los anuncios y contenidos. Se puede obtener la percepción sobre el público que ha visto los anuncios y contenidos. Dichos datos pueden usarse para desarrollar o mejorar la experiencia del usuario, sistemas y software.

Al hacer clic en ‘Estoy De Acuerdo’ usted permitirá el uso de las cookies, identificadores de dispositivo, balizas web u otras tecnologías similares indicadas. Su configuración puede cambiarse desde el navegador de su dispositivo.

Para ciertos fines, los intereses legítimos pueden ser considerados por encima del consentimiento. Puede leer más sobre ello en nuestra Política de Privacidad y Cookies.